Location: *
(44.3526°S, 44.9014°W)
Time: 23:49:34
(UTC+00:00)

Okean 1 Rocket - Pass Details

Date: 13 May 2025
Orbit: 602 x 627 km, 82.5° (Epoch: 14 June)

Event Time Altitude Azimuth Distance (km) Brightness Sun altitude
Rises 20:10:24 0° 183° (S) 2,946 6.3 -5.1°
Reaches altitude 10° 20:12:46 10° 175° (S) 2,026 5.5 -5.5°
Maximum altitude 20:17:03 42° 104° (ESE) 895 3.5 -6.2°
Drops below altitude 10° 20:21:14 10° 32° (NNE) 1,984 5.5 -6.9°
Sets 20:23:32 0° 24° (NNE) 2,875 6.4 -7.3°
